Regional Weather Roundup
Issued by NWS Charleston, SC

Home | Current Version | Previous Version | Text Only | Print | Product List | Glossary On
Versions: 1 2 3 4 5 6 7 8 9 10 11 12 13 14 15 16 17 18 19 20 21 22 23 24 25 26 27 28 29 30 31 32 33 34 35 36 37 38 39 40 41 42 43 44 45 46 47 48 49 50
000
ASUS42 KCHS 231112
RWRCHS

REGIONAL WEATHER ROUNDUP
NATIONAL WEATHER SERVICE CHARLESTON SC
600 AM EST THU NOV 23 2017

NOTE: "FAIR" INDICATES FEW OR NO CLOUDS BELOW 12,000 FEET WITH NO
SIGNIFICANT WEATHER AND/OR OBSTRUCTIONS TO VISIBILITY.

NOT ALL STATIONS ARE QUALITY CONTROLLED. USE DATA WITH CAUTION...
ESPECIALLY DEWPOINT OBSERVATIONS.

SCZ027-030-031-034>040-042>050-231200-
...SOUTHEAST SOUTH CAROLINA...

CITY           SKY/WX    TMP DP  RH WIND       PRES   REMARKS
N CHARLESTON   CLOUDY    48  37  65 NE9       30.06R
WATERFRONT PRK NOT AVBL
JOHNS ISLAND   FAIR      52  39  62 N8        30.05S
PINOPOLIS        N/A     48  39  71 NE12      29.99F
MONCKS CORNER  FAIR      46  34  61 NE7       30.07S
SUMMERVILLE    FAIR      46  37  71 N5        30.07F
BEAUFORT MCAS  PTCLDY    52  41  66 NE10      30.04S
BEAUFORT ARPT  FAIR      52  41  66 NE10      30.04R
HILTON HEAD IS NOT AVBL
WALTERBORO     CLOUDY    46  36  66 NE7       30.06F
ALLENDALE      PTSUNNY   48  36  61 VRB7      30.05F

...SOUTHERN MIDLANDS AND PEE DEE...

CITY           SKY/WX    TMP DP  RH WIND       PRES   REMARKS
GEORGETOWN     FAIR      46  41  81 NE6       30.08S
KINGSTREE      FAIR      43  34  70 CALM      30.09F
ORANGEBURG     PTCLDY    46  32  58 NE7       30.08S
BARNWELL         N/A     50  36  57 NE7       30.08R
AIKEN          FAIR      45  32  61 NE7       30.11S
MANNING        FAIR      45   1  16 MISG      30.09S
COLUMBIA       MOCLDY    47  30  51 NE9       30.10R
SUMTER         MOCLDY    41  30  63 NE8       30.08R
FLORENCE       CLOUDY    42  32  67 N7        30.11F
MYRTLE BEACH   CLOUDY    46  37  71 NE10      30.09F
N MYRTLE BEACH CLOUDY    46  37  71 NE13      30.07F

$$

GAZ063-065-086>088-099>101-113>116-118-119-134>141-150-231200-
...SOUTHEAST GEORGIA...

CITY           SKY/WX    TMP DP  RH WIND       PRES   REMARKS
SAVANNAH ARPT  LGT RAIN  54  43  66 NE6       30.04R
HUNTER AAF     MOCLDY    56  44  63 NE6       30.01R
FORT STEWART   LGT RAIN  54  49  84 NE3       30.01R
STATESBORO     DRIZZLE   53  39  59 CALM      30.05R
SYLVANIA       CLOUDY    53  42  67 E9        30.06S
CLAXTON        DRIZZLE   55  46  70 N6        30.04S

...CSRA...CENTRAL AND FAR SOUTHEAST GEORGIA...

CITY           SKY/WX    TMP DP  RH WIND       PRES   REMARKS
THOMSON        CLOUDY    47  37  69 SE6       30.13S
AUGUSTA-BUSH   CLOUDY    49  33  54 NE5       30.07S
AUGUSTA-DANIEL CLOUDY    50  32  50 NE8       30.08F
SWAINSBORO     CLOUDY    54  43  66 NE6       30.05S
VIDALIA        DRIZZLE   54  48  82 NE6       30.03F
EASTMAN        CLOUDY    58  39  50 E7        30.05S
HAZLEHURST     DRIZZLE   56  50  82 E7        30.01F
ALMA           LGT RAIN  58  56  93 VRB5      30.00S FOG
WAYCROSS       LGT RAIN  59  56  90 E9        30.00S
JESUP          RAIN      57  54  88 NE3       30.02S
BAXLEY         DRIZZLE   54  54 100 E6        30.01S
BRUNSWICK      CLOUDY    61  54  77 NE8       30.00S
SAINT SIMONS   CLOUDY    63  60  90 NE12      29.98S

$$

SCZ027-028-034-036>038-045-046-048>050-GAZ119-141-231200-
...LAKE AND SUPPLEMENTAL COASTAL OBSERVATIONS...

STATION/POSITION TIME  TEMP    WIND        PRES    WAVE   SWELL
                       AIR SEA DIR/SP/G            HT/PER HT/PER/DIR
                 (UTC) (F)     (DEG/KT/KT) (MB)    (FT/S) (FT/S/D)
WINYAH BAY       0945   49      20/  7     1018.0
LAKE MURRAY      1020   45      CALM  /  3 1018.3
ACE BASIN NERRS  0945   52      20/  3     1017.0
FORT PULASKI     1042   57 61   40/ 14/ 19 1016.9R
SAPELO ISLAND    1000   60      40/  8     1015.0

$$

ANZ835-935-AMZ111-154-330-350-352-354-370-450-454-472-231200-
...C-MAN AND BUOY OBSERVATIONS...

STATION/POSITION TIME  TEMP    WIND        PRES    WAVE   SWELL
                       AIR SEA DIR/SP/G            HT/PER HT/PER/DIR
                 (UTC) (F)     (DEG/KT/KT) (MB)    (FT/S) (FT/S/D)
BUOY 41004       1050   64 75   30/ 19/ 23 1015.9F   6/ 9   3/100/ 9
BUOY 41008       1050   66 67   60/ 19/ 23 1014.6S   4/ 9   3/130/ 9
FOLLY BEACH CMAN 1000   54      20/ 11/ 13 1017.9F
CAPERS NEARSHORE 1008   52 62   40/ 17/ 23 1017.0F
FRIPP NEARSHORE  1008   55 62   40/ 14/ 25 1015.6F


STATION/POSITION TIME  TEMP    WIND        PRES    WAVE   SWELL
                       AIR SEA DIR/SP/G            HT/PER HT/PER/DIR
                 (UTC) (F)     (DEG/KT/KT) (MB)    (FT/S) (FT/S/D)
5E ST. MARYS GA  1030      66                N/A     4/ 9
FRYING PAN BUOY  1050   60 72   40/ 21/ 25 1017.0F   7/ 8
BUOY 41025       1050   56 72   20/ 16/ 21 1018.6R   7/ 9   5/140/ 9
CAPE LOOKOUT NC  1000           10/ 13/ 17 1019.1R
BUOY 41002       1050   71 76   40/ 17/ 21 1014.2R   7/ 9   5/120/ 9
BUOY 41010       NOT AVBL
ST AUGUSTINE FL  1100   68 69   30/ 15/ 16 1013.4R


$$



USA.gov is the U.S. government's official web portal to all federal, state and local government web resources and services.